sat.trackr.live / text

‹ back to catalog

OCO 2

NORAD 40059 · 2014-035A

PAYLOAD ACTIVE UNKNOWN

§ Identity

Operator
Country
US
Launch date
2014-07-02
Launch site
AFWTR
Launch vehicle
Mass (kg)
RCS (m²)
1.15

Purposes: science

External: N2YO · Heavens-Above · Gunter

§ Orbital elements

Epoch: 2026-09-20T02:59:57.540192Z

Period
98.83 min
Inclination
98.2074°
Eccentricity
0.0001611
Mean motion
14.57092570 rev/d
Perigee alt
701.4 km
Apogee alt
703.7 km
Semi-major
7,080.7 km
B*
6.0959e-5
RAAN
202.9930°
Arg perigee
75.6220°
Mean anomaly
284.5157°
Rev number
64,987

§ Raw data

OCO 21 40059U 14035A   26263.12497153  .00000229  00000+0  60959-4 0  99972 40059  98.2074 202.9930 0001611  75.6220 284.5157 14.57092570649872

JSON: /api/v1/satellites/40059 · /tle

For live sub-satellite position, see the globe view (requires WebGL).

§ Visibility from observer

Set your observer location to see the next 7 days of passes ≥ 10°. The values pass through the URL so the page stays shareable.

No JS? Fill the form by hand. The geolocation button needs JavaScript.